Wind_Speed
10 8 7 8 8 9 10 11 12 13 14 15 15 15 14 13 10 8 6 4 3 2 3 3 4 3 3 4 4 4 4 4 4 4 5 5 6 10 10 7 6 5 5 5 5 5 9 10 9 9 9 7 3 10 11 6 5 3 1 1 0 1 2 6 3 6 7 9 10 10 11 8 9 8 6 6 8 10 10 12 13 16 20 21 22 23 22 20
10 7 7 7 8 9 10 10 11 12 13 14 14 14 14 13 11 9 7 5 4 3 3 3 3 3 3 4 3 3 3 4 5 6 9 10 8 9 9 8 6 6 7 6 6 7 8 9 7 7 9 7 6 10 12 9 8 4 1 2 1 0 3 7 5 5 8 10 12 10 12 9 9 9 6 7 9 11 12 14 18 20 22 22 22 22 21 20
9 7 7 7 7 8 9 10 11 12 13 13 14 13 13 12 11 9 6 5 4 3 3 3 3 3 3 3 3 3 4 6 7 7 9 10 9 8 8 7 7 7 6 6 7 8 8 9 7 6 9 7 7 10 10 7 7 2 1 1 1 2 4 9 11 3 11 11 13 11 11 10 9 9 7 8 10 11 11 13 17 19 21 22 22 21 20 19
9 7 6 6 7 8 9 10 11 12 13 13 14 13 13 11 10 9 7 5 4 3 3 3 3 2 3 3 4 4 5 7 5 3 7 9 10 8 7 6 7 6 7 9 7 10 9 11 10 8 9 6 6 6 9 8 8 2 1 0 1 3 2 7 13 5 13 10 12 11 11 10 9 9 9 10 9 8 10 13 16 19 22 22 21 20 18 17
8 6 5 5 6 8 9 10 11 13 13 13 14 13 12 10 10 9 7 5 4 3 2 2 2 2 3 3 5 4 4 3 1 2 8 10 9 7 5 6 6 7 10 9 5 11 10 12 10 10 9 4 6 1 9 13 14 6 2 1 2 3 1 1 9 8 11 9 11 11 10 9 7 9 10 10 7 7 10 15 19 20 21 21 20 19 17 16
8 6 5 5 6 8 9 11 12 13 14 13 13 13 11 10 10 9 8 6 5 3 2 2 1 2 2 3 5 4 4 2 4 5 9 8 8 4 4 6 6 9 11 7 8 11 9 10 10 10 8 3 7 5 7 14 19 7 1 2 5 5 3 4 8 6 9 8 8 8 9 10 8 8 7 7 8 9 12 16 20 20 20 20 19 18 16 15
7 5 4 5 7 8 10 12 13 14 14 14 13 12 11 9 10 10 9 7 5 4 3 2 2 2 2 4 4 5 8 3 4 7 8 6 5 2 5 6 5 9 10 7 10 10 9 10 10 10 7 3 7 6 2 11 18 10 4 4 5 6 6 5 4 3 8 9 8 4 9 10 9 8 5 8 11 12 15 18 19 20 19 18 17 17 16 14
7 5 5 6 7 9 11 13 14 14 14 14 14 12 11 10 10 10 10 8 6 5 3 3 2 2 4 5 3 8 8 2 4 7 8 4 1 3 6 5 6 8 8 8 9 10 9 10 10 10 7 3 7 6 3 8 10 8 5 7 6 6 6 4 1 2 7 11 9 6 8 8 8 10 7 10 13 14 17 19 19 19 18 17 17 16 15 14
6 5 5 6 8 10 12 14 14 15 15 14 13 12 11 10 10 10 10 9 6 6 4 3 2 3 5 4 4 8 2 2 6 7 6 2 3 5 6 5 4 6 8 9 9 10 10 11 9 7 8 8 9 7 5 6 3 3 6 8 7 6 4 3 4 5 8 9 6 5 8 9 8 10 9 10 13 16 18 19 19 19 18 16 16 16 15 14
6 5 5 6 8 10 13 14 14 15 15 15 13 10 10 10 10 10 9 9 7 5 4 4 3 3 3 1 6 6 6 4 4 3 3 1 4 5 7 5 5 6 9 10 9 11 11 12 11 11 11 9 8 5 6 6 2 6 8 6 5 7 5 4 4 5 8 8 6 5 6 10 9 5 7 11 14 18 18 19 19 18 17 16 16 15 14 15
6 5 5 7 8 10 13 14 14 14 15 16 13 9 9 9 10 10 8 7 6 4 3 3 2 2 3 2 9 3 8 4 1 1 1 2 3 4 4 5 7 8 10 9 10 10 11 11 11 12 9 6 8 6 4 7 7 10 12 6 2 4 5 5 4 4 6 7 9 6 1 7 9 2 6 13 15 18 19 18 18 17 16 16 15 14 14 14
5 5 6 7 9 10 13 14 14 14 15 16 13 8 8 8 9 9 8 7 6 2 2 3 3 4 3 6 8 2 5 1 2 2 3 3 4 5 5 7 8 9 10 9 10 8 10 11 9 12 9 9 11 6 4 2 5 9 9 6 2 3 4 5 4 5 3 3 11 9 2 6 5 1 8 14 14 17 18 18 17 16 16 15 15 14 13 14
5 6 6 8 9 10 13 14 13 13 15 17 13 7 6 7 7 8 7 6 5 1 2 4 5 4 3 5 2 1 1 1 3 3 4 4 5 6 6 8 8 10 10 10 11 8 9 10 9 14 13 13 11 5 3 2 8 8 2 1 3 3 3 5 3 3 0 1 11 9 3 6 4 6 11 13 15 17 17 17 16 16 16 15 14 14 13 14
5 6 7 8 9 11 13 13 13 13 15 16 12 7 5 6 7 7 7 6 4 3 5 7 6 3 5 2 1 3 3 2 4 5 5 5 5 7 6 8 9 10 10 10 11 9 9 8 10 14 13 14 12 8 7 1 10 5 4 4 2 1 2 5 4 7 5 4 9 6 2 6 6 10 12 13 15 17 16 17 17 15 16 14 14 14 13 13
5 6 7 8 10 11 13 14 14 14 15 15 11 7 5 5 6 6 6 5 5 5 6 6 4 3 8 4 3 3 3 5 7 6 6 6 6 7 6 6 9 10 10 10 10 9 8 8 10 12 13 15 14 11 8 1 5 3 4 4 1 1 1 4 4 7 7 5 7 4 2 6 6 10 12 13 15 16 15 17 17 16 16 15 14 14 14 14
5 6 7 8 10 12 13 14 15 16 15 13 10 6 4 5 5 5 5 4 4 6 5 3 2 7 9 2 3 2 3 6 5 6 6 7 7 6 4 5 7 9 10 9 9 8 8 9 11 13 13 13 11 8 5 2 0 1 2 5 2 2 3 4 4 7 6 4 6 3 2 4 4 8 11 13 16 16 15 15 17 16 15 15 14 14 15 14
5 6 7 8 10 12 13 15 16 16 13 10 8 5 4 4 3 3 4 2 2 6 6 3 2 8 8 1 2 3 5 4 2 5 6 6 8 6 3 6 7 8 9 9 9 9 9 9 10 10 10 10 7 7 6 3 3 1 1 4 5 2 3 4 3 7 7 6 7 5 4 4 4 9 11 12 15 16 15 14 16 17 16 15 13 14 15 14
6 6 7 8 10 12 13 15 17 15 12 9 7 6 4 1 1 1 0 1 3 6 8 7 5 6 5 4 3 2 2 2 2 5 7 5 7 6 5 7 5 6 9 9 10 11 9 9 9 7 8 8 7 8 5 1 3 4 3 3 4 4 2 4 4 8 9 8 8 7 7 6 5 8 11 13 14 14 16 16 15 16 16 16 14 14 15 15
7 7 7 9 9 11 13 14 16 14 11 8 9 11 6 3 3 2 3 4 6 6 4 7 10 4 1 3 1 1 1 1 3 4 6 5 6 7 7 7 6 7 9 7 9 11 9 7 7 7 6 8 9 7 2 2 4 7 6 3 2 4 2 0 2 8 11 7 6 9 8 6 5 7 10 14 15 13 14 16 16 16 16 16 15 14 15 16
9 8 8 9 9 11 12 14 15 13 9 8 12 14 7 2 4 4 3 8 12 9 6 3 8 6 3 3 2 1 1 2 4 4 5 5 6 7 8 8 7 7 8 7 7 10 9 6 7 8 8 10 10 4 2 6 10 8 3 3 2 2 3 2 2 5 10 7 7 11 9 7 7 7 7 10 13 15 14 15 15 16 16 16 16 16 15 16
10 9 9 9 9 10 11 13 13 11 8 8 12 13 9 8 4 3 4 9 9 6 6 3 5 5 4 1 4 3 6 5 5 3 4 5 6 7 7 8 8 6 8 10 8 9 8 7 8 9 12 13 3 4 4 9 10 2 1 3 3 3 2 2 2 4 7 5 6 8 6 6 6 4 4 6 6 11 13 14 15 16 16 16 16 17 16 16
11 10 10 9 9 10 10 12 11 10 9 8 10 11 9 10 7 8 10 9 3 2 4 1 4 3 3 5 5 4 8 7 5 4 5 6 8 8 6 6 8 6 7 9 9 6 7 8 11 12 15 11 2 3 3 5 6 1 2 1 2 3 3 2 3 6 6 3 2 3 3 3 3 2 5 6 5 7 9 11 13 17 16 16 17 17 17 16
12 11 11 10 9 9 9 10 10 7 7 8 10 10 9 9 9 9 10 11 5 4 6 2 5 6 3 3 2 4 10 7 6 8 6 6 9 8 5 7 7 7 8 9 8 7 7 8 11 14 12 6 2 5 6 5 5 2 2 3 1 4 2 1 3 7 5 2 1 4 4 2 0 3 6 5 4 6 11 17 13 16 16 16 18 18 18 18
12 12 11 11 9 9 8 8 7 7 9 11 9 8 8 9 10 10 10 12 7 4 4 1 3 2 1 1 3 7 9 2 1 8 7 6 9 6 5 7 6 8 9 8 8 9 11 7 4 8 7 4 4 6 7 5 5 4 3 1 1 5 2 3 4 5 2 2 2 5 4 3 4 8 7 4 3 7 12 19 16 16 16 15 17 19 18 18
13 12 12 11 10 8 8 8 7 9 13 13 7 6 9 9 10 9 8 10 6 3 4 4 3 1 2 0 4 6 6 1 1 5 8 6 9 5 5 5 6 8 6 5 6 7 12 12 7 8 6 5 5 6 9 8 4 6 8 5 2 1 5 6 6 5 2 4 4 5 4 4 8 11 9 6 5 6 12 16 15 17 16 15 16 19 19 18
14 12 12 12 10 8 9 8 6 7 11 9 4 7 9 8 9 7 6 7 4 5 6 6 4 3 2 5 6 4 5 5 3 4 4 6 8 8 8 4 5 5 5 5 6 5 8 8 5 6 6 5 6 8 9 9 6 3 9 9 3 3 7 6 7 4 3 3 4 5 4 3 7 11 10 9 10 11 12 14 15 17 17 16 16 18 21 20
15 12 12 12 11 9 9 9 8 10 11 5 4 9 9 9 9 4 5 6 3 4 6 6 3 2 2 4 5 5 2 5 6 4 3 4 6 9 8 4 4 5 4 4 5 3 7 8 3 4 7 6 7 9 8 9 9 1 10 10 4 4 6 5 5 3 2 1 3 7 8 5 4 9 11 11 10 12 12 10 12 17 18 19 18 17 21 21
17 13 11 12 12 10 10 10 9 11 11 8 8 10 9 11 9 2 6 4 2 2 3 6 4 1 2 3 5 8 2 3 4 4 5 4 6 9 8 5 7 5 3 4 4 2 4 10 8 6 7 6 7 9 8 9 7 4 10 7 4 4 7 7 4 0 3 3 2 7 10 7 4 6 10 11 10 11 12 11 12 15 17 19 19 18 20 21
19 14 11 12 13 11 11 11 10 9 9 10 11 11 9 10 7 3 7 4 2 3 2 4 4 4 5 5 6 6 4 7 3 1 6 5 5 8 8 7 8 8 5 6 9 4 0 5 7 5 6 6 8 10 9 11 5 8 7 3 3 5 7 8 4 3 2 2 4 5 8 7 3 5 9 9 10 11 11 11 12 15 17 18 19 19 20 21
20 15 11 11 12 11 11 11 9 9 9 11 12 13 12 9 6 6 6 2 2 4 4 3 4 6 7 8 8 6 4 7 2 1 5 5 5 8 9 9 8 8 7 8 10 11 6 4 6 6 7 8 9 10 10 9 1 7 1 4 4 5 4 4 4 5 1 2 4 6 8 9 4 4 7 7 8 11 10 10 13 16 19 20 20 20 20 22
21 16 11 12 12 12 12 9 5 5 7 11 13 14 12 7 5 7 4 1 2 4 4 4 4 5 7 7 8 8 6 5 6 5 5 5 7 8 8 8 7 6 7 8 9 11 11 10 7 6 9 10 10 11 9 4 3 4 3 6 5 4 3 3 2 4 3 2 1 4 7 10 5 1 5 6 6 8 11 10 10 15 20 22 22 21 20 21
20 17 11 12 14 15 15 9 5 7 9 12 15 13 10 5 6 7 4 1 2 2 1 2 4 3 4 5 4 3 3 3 7 5 5 6 7 7 7 6 5 5 5 6 6 9 12 11 9 8 10 10 9 8 6 4 3 2 3 5 5 4 4 4 3 3 3 2 2 3 1 5 6 4 4 8 8 6 10 11 12 18 22 22 22 21 20 21
20 17 11 12 16 18 17 12 10 11 11 12 14 11 8 6 6 6 3 3 1 3 2 3 1 1 4 7 4 2 1 2 4 5 5 5 5 6 9 5 5 6 4 7 4 4 6 8 10 8 8 10 9 7 5 5 7 7 6 6 5 5 5 5 3 2 1 2 4 7 5 2 4 6 10 5 4 4 8 11 11 17 20 19 21 22 21 21
19 15 11 12 16 18 18 16 14 12 10 12 12 9 7 7 7 5 4 4 1 1 2 3 3 4 5 6 3 4 4 4 2 3 3 5 6 6 7 6 4 6 4 6 6 3 6 2 9 5 3 10 9 8 8 7 6 8 8 6 6 6 5 4 3 1 1 1 4 6 4 1 2 3 9 12 8 5 4 4 3 8 15 19 20 22 21 20
16 12 11 11 14 16 17 17 15 12 11 11 9 8 7 8 7 5 4 1 3 1 3 3 3 6 6 5 1 4 6 3 2 4 3 6 7 2 1 5 3 3 4 3 4 3 6 3 7 6 5 6 4 5 7 10 9 5 5 5 6 6 4 4 4 3 3 1 1 2 1 0 0 0 4 10 12 10 11 11 9 6 13 20 21 23 24 24
13 10 11 9 9 11 14 16 15 12 10 9 8 7 7 8 6 2 3 3 2 5 4 4 5 7 7 7 4 4 6 4 2 4 4 7 5 2 1 3 6 1 5 5 5 3 4 2 5 3 3 4 4 5 6 10 6 3 3 6 6 5 5 5 4 2 3 3 1 1 1 2 2 1 3 6 9 8 9 12 13 14 13 18 23 24 26 27
11 8 11 10 7 7 12 15 13 11 10 9 8 7 8 9 8 3 2 4 5 4 7 5 4 4 6 5 6 8 7 5 4 4 5 5 1 1 2 2 5 2 5 5 5 4 3 5 3 3 6 7 5 6 9 11 8 6 5 1 1 5 6 4 3 4 4 3 0 0 1 2 2 1 1 4 9 8 8 10 11 14 15 14 18 22 25 28
13 9 13 13 8 9 11 12 11 11 10 9 9 9 10 10 8 4 1 3 6 4 7 8 1 2 8 4 5 10 7 3 4 4 3 2 3 1 4 1 4 1 3 3 6 1 1 6 6 2 6 7 4 5 8 10 13 13 4 5 1 4 4 2 3 5 5 2 0 2 1 1 3 2 3 3 4 6 4 7 8 7 10 13 14 19 24 27
14 11 13 10 10 10 10 11 12 12 10 8 8 8 10 11 9 6 1 2 7 6 7 8 2 3 7 3 3 4 5 2 2 2 2 1 2 2 3 3 3 2 2 2 5 4 2 4 5 3 7 12 8 5 5 6 10 12 3 6 4 4 3 3 4 5 4 1 1 1 1 1 2 1 3 6 5 4 2 4 5 5 7 11 12 16 17 19
13 12 8 10 13 9 8 10 12 11 9 8 10 8 10 12 9 7 4 3 7 6 5 6 3 3 5 4 4 4 4 2 3 4 2 4 3 3 2 2 3 2 4 3 5 3 2 2 3 3 4 9 9 3 5 7 5 6 3 3 5 5 5 5 6 7 4 2 2 0 1 1 1 2 3 4 3 2 4 3 2 6 9 12 11 13 9 7
12 11 4 12 12 9 10 9 11 10 8 8 10 12 13 13 7 4 6 6 8 7 6 7 6 5 6 6 4 4 4 1 3 6 3 5 3 3 2 2 2 5 8 4 5 1 2 2 3 4 3 5 8 4 8 13 10 5 3 4 6 5 5 6 6 6 3 2 4 3 1 1 1 2 4 5 2 2 2 3 2 6 5 8 6 3 0 3
11 7 4 11 10 9 10 8 9 10 9 9 12 14 11 6 8 6 5 7 7 7 7 8 8 7 7 8 5 2 4 3 4 6 3 2 2 2 4 4 4 5 6 7 4 8 6 3 4 6 4 7 10 6 4 8 9 7 5 5 7 7 7 7 5 4 4 4 6 5 2 0 1 3 9 9 1 5 3 2 4 7 7 5 6 7 6 7
13 9 1 8 9 10 10 8 8 10 9 11 16 20 13 4 6 9 6 7 7 7 7 7 6 6 8 7 4 3 3 5 7 7 2 2 3 7 5 3 1 2 5 7 3 8 6 4 3 6 6 7 11 8 7 9 8 6 4 4 6 7 7 8 6 5 5 3 3 3 1 2 2 7 11 11 6 3 5 7 7 4 5 5 6 7 6 7
18 18 12 8 10 10 11 8 7 8 10 13 15 19 17 9 7 9 9 8 7 6 7 6 6 8 7 3 3 6 5 3 6 6 3 2 4 6 4 3 2 3 2 4 5 6 4 2 2 4 5 6 7 6 6 7 6 4 1 4 6 6 7 8 7 5 5 3 1 2 2 2 6 8 5 5 7 3 6 6 7 3 1 3 6 9 10 10
17 15 13 12 12 12 13 10 10 9 9 14 14 14 15 10 8 11 12 9 8 8 7 7 8 9 6 3 4 9 8 5 4 4 3 3 1 4 3 4 2 4 8 12 10 7 3 5 4 4 5 6 4 4 4 4 6 5 2 4 6 7 5 5 5 3 3 4 4 3 2 4 8 8 5 5 9 5 4 4 4 4 2 4 7 9 10 11
11 7 8 11 14 15 14 14 16 13 9 10 10 10 14 12 11 14 13 11 11 11 10 9 7 4 4 5 6 7 7 7 6 4 5 6 4 5 7 6 6 4 10 12 8 6 5 7 2 0 5 6 5 6 6 5 7 7 4 4 5 7 7 7 5 3 3 3 3 1 3 7 7 7 8 6 8 9 3 3 2 5 6 6 7 7 9 10
9 7 8 5 6 11 12 14 16 13 11 11 8 8 13 13 10 12 15 12 11 12 10 9 7 4 5 8 7 7 9 9 9 9 8 8 5 2 8 6 6 5 3 5 8 3 5 6 1 2 7 8 8 10 10 8 8 9 8 6 4 5 8 10 6 5 7 5 3 1 3 8 7 5 6 7 7 9 10 5 2 3 6 6 7 9 9 9
9 10 12 11 5 7 7 9 11 10 12 13 9 10 14 10 8 10 13 12 9 12 9 7 10 9 9 9 8 7 9 9 9 11 9 7 7 3 7 8 6 11 7 9 8 6 6 4 1 3 7 8 8 11 11 8 6 8 8 6 4 3 7 10 8 6 7 7 2 3 4 5 5 4 4 6 8 10 14 13 7 2 6 8 9 11 11 10
12 13 15 16 11 11 11 12 14 13 12 11 7 9 13 12 12 12 10 9 7 9 10 9 10 11 10 10 7 6 6 6 8 9 7 6 9 8 7 5 4 10 10 9 6 4 5 1 1 4 7 9 8 8 10 8 6 8 8 6 4 2 3 7 8 7 5 4 4 6 7 5 4 3 4 5 7 12 17 18 13 7 7 10 13 14 13 12
13 12 14 17 15 15 16 15 14 11 9 9 8 8 10 13 13 12 11 11 8 8 10 11 11 12 13 12 11 8 7 10 10 5 4 7 8 8 6 6 3 5 8 7 1 1 2 1 0 1 4 7 6 6 9 8 4 6 9 9 5 2 5 7 7 6 4 4 6 4 5 6 3 3 6 7 8 12 16 17 18 14 10 11 14 15 14 14
14 13 13 14 11 11 14 13 12 9 7 7 7 8 10 12 13 13 13 14 12 9 10 11 11 12 11 12 13 9 5 11 14 6 7 12 10 4 4 6 6 6 8 7 2 4 4 3 4 3 2 5 4 5 9 8 5 5 7 9 5 3 5 6 8 8 6 2 3 3 3 4 5 4 7 10 9 11 14 15 16 16 13 12 13 13 14 14
16 14 11 11 9 9 11 11 10 9 7 7 9 10 12 13 15 16 13 12 17 18 14 13 12 9 9 12 12 4 4 14 15 9 12 15 11 7 7 9 8 4 5 8 5 3 4 3 3 4 4 4 2 3 7 7 6 4 4 6 5 2 7 5 7 7 2 2 3 3 4 3 7 8 7 8 8 9 14 15 13 13 14 13 13 13 13 12
Wind_Direction
22 34 44 45 51 53 51 46 41 37 32 30 27 24 22 20 18 15 11 5 357 343 325 325 318 311 301 293 301 311 325 316 302 293 260 235 239 252 266 270 260 248 230 211 171 203 228 224 229 239 238 240 198 126 135 155 153 158 301 251 255 265 283 328 352 120 127 133 134 137 134 128 125 133 150 136 121 127 125 109 97 100 111 118 125 132 136 139
22 33 44 52 58 54 46 39 34 31 27 24 20 19 17 16 16 12 11 4 356 350 335 330 319 311 291 276 283 298 308 288 270 274 266 263 272 275 267 258 246 227 222 192 181 222 230 229 227 232 238 230 207 165 157 162 151 140 209 214 133 244 285 312 322 129 142 140 132 139 137 134 138 145 159 140 133 135 119 108 106 107 113 121 129 135 138 141
22 33 49 59 61 51 41 33 28 24 22 19 15 13 10 9 9 6 6 357 354 349 339 339 326 313 288 265 255 267 275 273 275 269 256 267 286 286 266 245 232 219 217 173 185 241 250 268 278 260 252 244 221 168 150 165 151 132 178 175 93 1 319 330 322 187 146 139 138 138 134 132 142 149 154 144 137 129 120 119 122 122 126 130 134 138 141 144
24 36 53 61 57 44 37 29 22 20 16 14 12 11 8 5 3 3 360 352 350 343 340 335 327 310 282 261 240 249 275 276 274 222 233 272 295 290 262 228 222 209 187 164 198 265 266 274 284 277 264 265 268 142 142 175 144 96 61 168 75 43 359 351 320 229 147 141 138 132 136 135 144 149 145 146 136 127 134 134 132 133 134 136 139 142 145 145
24 40 54 55 48 37 33 25 20 17 13 12 11 11 11 6 3 3 1 356 341 331 332 308 312 290 266 249 242 247 276 275 101 220 256 280 294 288 251 213 209 191 172 161 229 271 265 269 274 268 262 273 309 123 169 166 122 78 8 252 182 120 112 319 281 222 147 147 142 138 143 133 139 138 141 152 139 133 141 135 134 136 137 139 141 143 143 143
24 38 47 45 39 31 27 21 18 15 13 13 10 12 12 10 7 1 2 360 347 327 292 278 276 254 246 234 241 236 256 320 46 303 287 290 291 286 221 201 198 185 175 186 258 267 258 263 262 258 260 268 292 269 185 143 117 105 295 233 201 176 177 224 256 208 155 157 135 138 137 129 132 127 146 156 131 134 136 134 136 137 140 140 139 141 143 144
24 32 38 37 32 28 24 19 17 15 15 13 11 12 8 8 8 3 1 353 350 334 291 269 249 223 221 214 225 236 244 294 9 319 321 309 288 235 191 187 188 189 185 216 254 260 253 258 262 265 270 266 277 276 129 107 108 117 158 182 197 175 172 218 254 193 175 141 114 150 140 136 135 128 155 134 123 133 133 133 136 138 140 138 140 142 142 143
23 29 35 35 30 27 22 17 15 13 13 10 8 8 3 1 357 359 358 348 341 327 296 268 249 197 221 209 234 265 243 248 339 328 343 326 281 171 180 165 167 182 201 237 248 254 258 260 262 269 280 283 283 286 79 84 90 100 147 176 188 175 174 214 212 179 186 134 131 187 148 144 140 135 148 131 133 137 134 136 137 140 139 140 142 139 141 145
21 31 37 34 29 25 19 14 10 8 8 6 2 359 357 356 352 352 352 347 334 314 301 272 240 204 236 217 270 283 211 94 316 322 339 337 144 162 155 146 177 184 219 249 250 254 258 256 266 301 311 298 286 296 31 42 41 102 147 168 178 183 175 181 158 178 192 143 138 191 148 146 143 141 150 146 145 136 135 140 139 142 141 142 140 136 143 145
28 40 37 29 24 20 15 8 4 3 2 1 355 348 348 352 356 354 350 349 335 313 297 256 233 235 248 265 288 283 112 96 312 337 345 75 131 148 136 159 226 223 238 252 249 251 256 265 296 319 309 300 289 299 36 54 108 127 134 160 173 177 175 166 157 179 185 134 119 187 159 142 148 160 163 154 147 139 142 143 141 144 142 142 138 139 147 142
33 38 27 20 17 14 9 2 359 358 359 359 352 341 340 347 356 357 356 353 343 329 280 241 224 212 164 232 278 287 101 110 271 88 213 160 154 170 161 201 231 238 246 256 252 254 263 276 308 300 289 327 306 303 55 101 130 125 125 134 157 175 173 155 157 213 197 128 132 177 123 137 157 174 160 155 151 147 147 144 144 145 142 143 139 142 145 139
27 24 17 12 8 7 2 358 356 356 359 359 355 345 338 347 358 360 1 358 359 358 243 211 168 161 168 253 271 5 73 142 199 192 201 195 210 219 230 236 238 242 248 262 261 260 267 275 298 282 285 321 304 323 24 100 116 109 115 125 157 218 176 149 189 233 249 128 148 160 124 147 154 211 172 158 155 153 149 147 148 146 143 143 141 144 143 138
11 9 6 2 358 357 355 355 355 355 358 1 4 354 342 354 2 4 5 6 14 31 173 163 166 179 250 277 257 101 37 223 200 209 210 215 227 233 246 247 243 246 252 267 272 280 281 269 271 275 287 298 297 339 312 283 72 71 39 172 172 240 185 152 192 184 292 174 154 160 181 146 141 240 199 161 159 158 152 151 149 147 147 146 146 147 143 141
355 354 353 351 349 349 351 354 354 353 358 4 8 0 356 5 5 12 13 19 43 105 142 161 176 203 271 285 118 223 219 200 226 217 214 224 233 238 248 250 244 246 252 263 271 284 296 278 261 269 278 275 281 304 279 233 74 71 269 249 175 282 212 172 176 164 178 183 155 165 200 136 159 224 199 163 165 164 159 157 153 154 152 150 151 149 147 148
339 336 338 340 341 345 349 353 353 352 359 6 12 12 14 11 9 18 18 44 88 130 143 171 194 268 271 232 144 262 230 212 232 222 218 221 228 238 238 244 245 244 252 258 263 270 279 277 262 258 267 264 259 271 273 179 88 120 245 270 174 92 184 179 185 191 193 162 158 185 163 142 172 200 183 170 170 167 169 163 155 159 155 154 155 151 152 153
324 322 327 332 336 342 348 351 352 355 1 9 15 15 15 11 12 15 15 52 132 157 157 174 307 305 292 245 140 255 227 213 220 210 218 222 236 259 247 239 250 244 247 251 253 262 264 260 257 258 269 275 265 260 269 275 306 141 277 304 328 103 154 163 191 212 212 167 173 198 156 154 177 195 189 180 174 170 178 170 158 161 158 157 160 156 154 152
316 317 320 325 331 339 344 348 352 356 4 11 13 9 6 5 1 14 19 11 184 185 207 221 285 285 281 260 183 201 188 198 216 216 222 229 243 275 268 233 250 242 242 248 242 248 253 245 250 260 257 257 265 267 264 278 304 1 352 315 331 356 156 165 186 201 212 202 187 180 180 178 167 196 204 192 183 175 177 178 164 161 161 160 164 159 154 153
312 308 312 320 326 335 339 343 349 355 5 7 357 347 336 334 21 9 29 291 244 229 249 229 212 266 252 212 220 168 153 212 254 230 221 231 242 255 243 231 251 242 235 241 233 232 233 232 239 252 252 244 237 251 265 289 300 328 349 328 333 324 202 182 183 176 190 201 187 186 197 191 165 195 210 199 192 185 179 180 172 165 162 162 166 163 157 157
305 298 304 313 319 329 333 339 345 353 6 3 349 344 320 214 185 214 211 221 227 247 288 200 208 276 68 168 187 101 14 257 222 218 212 231 236 227 231 237 249 243 237 230 208 211 219 222 232 240 248 251 240 241 295 12 357 5 359 338 336 317 322 168 187 165 171 177 183 196 193 180 178 200 215 200 192 195 189 181 174 168 165 165 167 165 161 160
304 297 298 306 314 324 328 335 341 349 2 2 351 340 322 265 218 197 194 233 238 261 317 208 232 307 71 142 70 134 215 190 199 211 214 229 227 222 229 236 238 229 238 244 200 193 215 228 231 241 239 247 260 264 48 51 51 44 358 327 356 356 16 18 303 173 167 169 196 203 182 169 188 199 225 212 196 199 198 188 177 169 170 171 167 164 166 162
307 298 296 302 310 318 325 331 336 343 347 350 350 334 335 4 336 335 333 257 235 250 299 322 276 322 40 322 315 248 218 195 189 203 208 211 222 223 205 214 235 223 224 248 238 190 199 241 239 244 250 248 270 41 46 67 68 34 282 339 349 34 66 130 219 206 179 174 209 206 171 175 186 181 269 275 228 210 204 195 179 171 177 174 166 165 167 164
311 301 297 299 305 317 323 327 332 339 336 334 341 326 333 5 346 333 324 284 258 203 249 346 225 204 53 308 287 240 233 214 176 176 195 210 227 224 188 202 235 236 220 232 246 205 192 243 244 242 259 259 125 103 254 103 100 351 51 278 293 76 91 123 169 205 186 161 225 197 172 218 182 163 251 263 262 250 242 233 194 175 183 178 168 167 167 167
314 304 298 297 303 314 316 323 328 333 355 353 340 327 328 345 331 328 315 285 275 206 205 208 235 197 165 261 170 207 248 233 176 173 178 221 230 225 236 248 245 246 236 216 229 238 221 221 225 234 248 254 185 209 228 152 131 126 137 260 299 131 172 3 177 195 183 169 164 147 172 235 224 218 235 228 245 245 255 267 234 183 186 185 172 168 170 172
315 305 298 295 299 310 311 319 322 325 350 345 335 335 335 337 327 330 322 288 263 192 183 199 273 234 103 332 161 226 257 310 146 169 159 224 231 218 247 259 257 252 245 229 227 248 268 280 270 259 237 211 265 256 239 218 160 139 156 244 272 183 176 63 143 161 159 205 147 136 171 197 199 216 214 187 232 233 248 268 245 193 191 193 176 169 174 176
315 305 297 291 293 300 303 310 320 330 324 307 306 340 337 336 324 323 320 287 258 178 160 165 194 172 54 185 198 242 256 294 41 146 154 231 254 272 287 267 251 256 261 262 252 246 269 282 286 280 246 215 266 271 264 261 198 163 172 185 240 165 91 103 143 135 149 214 180 160 191 198 193 208 205 174 185 227 255 261 231 197 193 199 187 171 175 178
318 307 295 287 286 285 297 309 302 312 310 290 301 342 335 328 319 320 309 274 238 154 159 169 184 172 170 205 205 246 239 179 123 113 173 237 259 279 291 262 218 258 300 296 280 250 249 272 312 317 284 238 251 262 266 272 267 211 161 171 211 84 98 139 158 158 202 195 165 176 211 211 181 194 195 180 179 193 229 246 223 202 190 197 199 176 175 180
323 308 293 283 280 274 283 291 271 286 317 341 340 334 333 320 319 330 282 262 199 161 170 157 126 103 183 216 232 265 264 141 145 159 199 227 243 253 261 258 236 244 251 263 285 256 239 263 308 329 297 266 254 260 245 239 263 264 132 156 193 121 113 150 166 198 267 67 145 196 220 245 212 195 184 181 193 188 200 226 219 207 193 194 200 184 179 181
329 312 293 279 274 268 272 283 275 283 316 350 334 326 329 318 324 325 271 284 111 172 168 126 95 63 210 195 238 267 274 157 202 173 163 205 246 249 253 281 298 289 230 246 269 163 199 250 239 219 251 257 250 263 264 255 256 128 131 148 183 160 135 144 158 275 346 359 248 213 216 237 244 197 176 177 201 201 197 206 208 210 204 196 198 191 183 181
331 316 292 275 269 268 268 274 274 281 306 322 316 317 320 312 312 264 262 281 151 181 139 114 133 187 216 205 222 255 202 186 255 87 157 217 250 250 271 297 305 302 282 267 269 258 210 290 288 258 238 245 251 256 263 262 243 111 106 112 207 210 153 141 132 88 37 308 263 241 224 234 241 185 177 180 200 207 201 199 200 209 213 204 199 196 187 182
330 320 293 270 264 263 263 265 283 312 311 299 305 315 310 293 274 258 259 268 157 159 151 149 156 176 202 216 213 224 208 190 215 141 184 232 224 217 253 271 277 279 260 249 258 265 262 252 288 290 262 271 274 262 256 259 236 96 84 279 237 223 182 158 127 111 143 247 245 259 242 240 256 171 178 190 201 201 198 201 198 201 210 209 203 201 192 184
326 320 292 264 254 248 251 255 284 314 289 287 307 316 298 268 248 269 279 314 169 164 173 169 162 190 209 235 223 204 212 191 168 178 203 214 199 204 230 233 239 254 248 238 233 239 234 216 224 238 243 264 272 264 265 282 54 87 246 263 251 222 208 217 160 153 238 260 234 277 255 240 250 179 194 215 208 198 202 203 191 195 205 203 201 203 198 188
321 316 291 259 249 240 236 230 229 243 257 291 311 309 291 260 243 255 248 215 184 140 357 148 152 209 226 246 242 196 219 182 169 199 235 225 209 212 218 215 241 252 249 254 221 214 223 210 205 209 207 228 250 251 248 230 203 222 249 247 250 239 219 233 215 189 260 288 71 52 13 238 249 300 286 225 198 204 224 215 193 195 200 195 194 202 201 192
320 313 290 256 246 238 229 225 234 245 264 301 307 294 276 264 264 270 260 246 185 90 343 304 204 291 272 241 213 122 265 189 184 222 238 251 259 222 200 202 290 278 275 298 284 213 220 184 183 211 190 189 228 248 228 208 202 217 234 229 236 249 243 252 239 183 265 241 129 112 115 201 257 316 335 302 198 197 236 231 202 189 193 194 194 200 206 200
320 312 293 261 248 240 228 226 234 245 273 298 296 275 256 263 267 270 274 255 162 101 237 253 243 237 257 255 179 142 211 215 208 233 200 218 251 240 196 179 264 272 264 294 311 329 310 211 170 203 152 160 199 242 252 263 241 217 222 225 239 251 254 267 262 257 300 218 129 132 156 240 267 310 337 329 327 2 359 301 245 190 199 205 201 201 211 213
327 319 302 271 254 244 228 225 229 241 270 285 280 263 248 260 257 256 304 1 70 326 209 165 246 239 213 222 182 163 213 219 202 228 211 219 241 289 182 146 138 279 281 305 342 351 306 315 126 121 84 128 198 254 257 273 278 240 204 211 240 257 260 255 263 316 325 256 125 135 195 67 95 341 338 322 324 350 1 343 331 289 221 207 203 201 204 214
335 319 306 296 274 252 228 222 224 230 257 269 266 255 242 259 282 331 9 7 7 320 278 191 223 250 221 200 185 159 185 197 223 231 219 235 264 10 23 85 94 285 312 340 335 325 288 331 85 122 190 190 254 289 250 245 269 313 249 227 237 256 272 257 242 293 302 269 297 329 254 131 129 340 344 327 325 342 353 344 334 313 263 210 202 201 198 209
329 290 285 292 276 239 219 218 217 220 242 255 255 258 262 279 309 352 51 337 330 322 298 267 201 251 267 220 169 155 173 198 208 214 211 214 225 66 275 33 78 307 333 347 312 335 335 303 314 280 254 231 234 266 260 241 233 258 269 277 290 253 265 285 243 239 259 254 273 355 280 121 129 281 329 347 331 334 354 347 332 312 282 234 209 205 201 208
326 289 274 271 237 194 202 207 203 215 234 248 252 261 270 279 299 312 43 343 301 254 256 265 203 257 270 258 158 160 165 178 183 201 223 176 119 121 285 310 132 212 341 296 280 347 79 284 286 312 322 312 279 239 255 251 238 248 244 99 51 261 247 266 241 245 257 246 77 41 23 128 163 191 142 116 311 313 343 323 315 304 260 235 218 214 208 205
324 299 274 242 186 175 196 196 197 219 232 241 249 249 255 257 258 263 354 348 278 261 257 263 275 261 258 309 30 166 171 165 204 255 286 197 143 152 309 316 159 125 60 224 285 343 35 305 298 322 353 338 317 237 230 241 233 252 258 135 185 246 244 249 244 254 262 214 121 25 16 214 193 170 126 150 216 265 335 279 296 339 283 246 224 218 214 199
316 293 262 172 163 179 191 190 202 222 230 239 250 249 252 257 241 212 203 253 254 249 270 274 267 251 257 291 307 265 262 216 217 275 234 177 198 189 218 276 213 293 341 211 223 289 259 229 270 288 351 334 312 315 329 312 257 243 251 204 215 206 210 241 246 246 248 135 123 125 311 297 133 133 134 147 204 304 353 304 331 10 311 273 246 220 214 189
310 285 221 153 166 179 173 189 210 222 233 238 249 258 260 272 278 198 181 226 251 257 279 290 294 312 313 294 258 237 275 246 206 278 265 172 193 211 191 357 313 328 341 269 225 336 296 253 308 305 326 298 288 340 345 319 313 308 278 269 276 254 231 243 244 241 237 151 151 165 218 317 85 121 106 84 26 301 290 282 54 42 324 283 288 268 170 100
303 277 159 154 176 180 181 211 219 220 238 238 243 255 256 262 277 261 185 195 236 254 256 267 282 299 298 288 297 308 293 283 218 240 267 212 198 119 93 52 6 345 332 282 301 21 5 309 317 300 287 279 278 303 323 292 298 301 273 261 277 282 271 256 250 256 245 198 170 152 139 241 174 80 82 94 149 260 269 7 48 40 10 2 28 30 38 70
304 301 256 175 190 199 211 236 226 216 237 245 248 256 254 220 241 261 242 207 216 228 233 247 265 262 253 259 301 316 262 264 250 232 224 226 134 103 111 101 35 292 282 269 302 25 357 298 304 299 296 285 277 280 269 258 257 250 249 275 285 303 304 283 278 292 282 247 168 134 144 206 122 69 78 113 154 275 350 34 50 54 22 29 77 82 88 105
311 303 285 221 191 210 229 238 234 225 230 237 244 255 258 243 220 245 249 223 212 224 231 239 249 248 248 255 284 275 261 274 273 257 266 324 79 111 137 70 13 264 314 337 348 23 0 296 299 295 296 293 285 285 276 275 271 248 39 2 309 312 326 308 292 286 292 289 194 171 211 174 97 77 70 114 115 40 1 45 79 106 48 39 77 88 97 112
307 293 268 226 196 216 235 238 246 245 233 235 238 246 257 249 216 233 257 252 230 234 238 235 241 244 236 190 227 261 283 310 289 256 253 271 227 189 168 75 288 268 49 35 3 7 343 298 315 310 306 312 301 294 300 303 289 277 13 8 303 291 301 300 286 258 266 255 227 223 192 132 104 116 153 130 111 100 341 357 86 96 71 79 85 84 93 103
297 292 270 231 204 213 230 241 254 261 268 267 256 244 247 240 215 216 237 260 255 243 242 243 246 256 253 241 242 250 262 273 265 244 238 249 235 171 134 124 237 256 56 38 355 351 303 283 318 67 291 300 283 262 257 259 270 279 296 305 296 294 281 271 266 270 281 246 223 271 143 138 126 145 157 126 114 121 95 342 29 71 64 73 85 89 97 103
282 296 308 297 216 217 225 233 240 246 258 266 273 276 260 242 227 212 204 219 252 250 244 245 243 239 234 237 247 245 237 244 255 255 256 273 301 109 142 174 218 182 91 311 289 285 274 271 178 202 267 281 288 286 278 263 264 276 281 277 289 309 290 276 271 301 311 283 221 178 148 149 150 168 155 128 120 118 113 127 183 104 88 87 90 97 100 100
297 301 317 348 336 251 249 245 248 259 262 256 253 277 278 254 237 235 201 189 228 242 232 231 234 243 254 245 240 242 230 223 242 257 260 270 290 253 195 209 184 149 176 256 251 225 241 253 25 319 293 286 284 289 290 288 282 283 289 297 309 307 290 283 279 288 307 304 256 144 136 136 138 147 131 121 124 116 116 132 160 122 94 107 105 100 104 106
319 319 320 341 332 293 296 294 292 297 287 280 270 266 278 268 244 238 214 189 210 226 221 229 227 226 247 260 266 279 275 255 245 248 255 272 281 273 247 242 169 151 189 239 247 243 254 240 50 337 308 293 287 294 300 304 306 300 296 289 285 289 311 311 296 277 288 346 62 111 123 114 102 108 105 104 105 105 112 123 127 105 84 97 100 97 103 110
330 331 323 328 320 303 301 294 291 291 271 275 289 275 275 273 262 260 245 224 217 203 208 233 243 228 225 230 229 223 235 261 268 256 242 258 263 262 269 283 263 197 224 250 257 61 292 276 170 311 305 289 281 292 297 291 280 288 281 266 264 346 356 344 328 310 326 69 99 133 145 128 106 103 113 105 91 93 99 105 110 113 106 93 94 97 98 101
334 321 312 314 305 300 304 292 280 280 260 248 261 264 265 263 261 268 264 246 242 232 211 220 241 251 254 244 229 204 198 258 272 275 245 253 258 243 228 246 247 232 245 257 207 167 210 213 193 194 283 296 279 285 293 283 257 263 267 257 261 24 27 353 338 340 350 46 134 177 204 157 146 157 128 111 105 101 97 93 99 112 117 108 103 102 98 96
334 318 309 307 295 286 291 284 272 272 269 254 247 245 254 259 255 255 257 256 252 244 228 218 217 227 260 263 251 238 253 254 252 241 235 246 269 293 277 271 281 284 268 277 289 257 239 239 239 257 296 297 287 310 308 288 258 251 262 260 258 134 103 74 341 325 309 225 212 203 247 221 151 160 154 127 125 112 101 100 101 105 110 110 107 104 101 99
Height
1522 1521 1520 1520 1519 1518 1517 1517 1516 1515 1514 1513 1512 1511 1509 1508 1507 1507 1506 1505 1505 1505 1505 1505 1504 1504 1504 1503 1503 1502 1502 1501 1500 1500 1500 1500 1500 1500 1501 1501 1501 1502 1502 1503 1504 1505 1507 1507 1507 1508 1507 1508 1510 1510 1512 1511 1509 1515 1519 1522 1525 1523 1520 1512 1507 1505 1505 1505 1504 1505 1506 1507 1508 1508 1507 1506 1506 1506 1506 1506 1507 1509 1510 1514 1518 1521 1524 1526
1522 1521 1521 1520 1519 1519 1518 1517 1516 1516 1515 1514 1512 1511 1510 1509 1508 1507 1506 1506 1505 1505 1505 1505 1504 1504 1503 1503 1503 1502 1501 1500 1500 1499 1498 1499 1499 1500 1500 1500 1501 1501 1501 1502 1504 1505 1506 1506 1505 1505 1505 1504 1506 1507 1509 1510 1510 1514 1517 1520 1521 1519 1513 1508 1506 1503 1502 1504 1504 1505 1506 1507 1508 1507 1507 1507 1507 1506 1506 1508 1510 1512 1514 1517 1520 1522 1524 1526
1523 1522 1521 1521 1520 1519 1519 1518 1517 1516 1515 1514 1513 1512 1511 1510 1508 1507 1507 1506 1505 1505 1505 1504 1504 1503 1503 1503 1502 1502 1501 1500 1499 1498 1498 1498 1499 1499 1499 1500 1500 1501 1501 1502 1503 1505 1506 1504 1503 1503 1502 1502 1503 1505 1508 1510 1511 1511 1513 1519 1517 1512 1509 1506 1506 1504 1502 1503 1502 1504 1506 1506 1507 1507 1507 1507 1507 1506 1508 1510 1512 1514 1516 1519 1521 1523 1525 1527
1523 1523 1522 1521 1521 1520 1519 1518 1517 1516 1515 1514 1513 1512 1511 1510 1509 1508 1507 1506 1505 1505 1504 1504 1504 1503 1503 1502 1502 1502 1501 1500 1499 1498 1498 1498 1498 1498 1498 1499 1499 1500 1501 1501 1502 1505 1506 1504 1503 1502 1500 1500 1501 1504 1508 1507 1509 1509 1512 1518 1514 1510 1510 1508 1508 1506 1503 1503 1503 1504 1506 1507 1507 1507 1507 1507 1509 1511 1509 1510 1512 1514 1517 1519 1522 1524 1525 1527
1524 1523 1523 1522 1521 1520 1520 1519 1518 1517 1516 1515 1514 1512 1511 1510 1509 1508 1507 1506 1505 1504 1504 1504 1503 1503 1503 1502 1502 1501 1502 1502 1499 1497 1498 1498 1498 1498 1498 1498 1499 1500 1501 1501 1502 1504 1505 1504 1503 1501 1500 1499 1499 1504 1508 1503 1504 1511 1513 1514 1512 1511 1511 1509 1509 1507 1504 1505 1505 1505 1506 1507 1506 1506 1507 1507 1510 1511 1509 1510 1513 1515 1518 1520 1522 1523 1525 1527
1524 1524 1523 1523 1522 1521 1520 1519 1518 1517 1516 1515 1514 1513 1512 1510 1509 1508 1507 1506 1505 1504 1504 1503 1503 1503 1502 1502 1502 1501 1502 1502 1498 1498 1498 1497 1497 1497 1497 1498 1498 1499 1500 1501 1503 1503 1504 1503 1502 1499 1497 1497 1498 1499 1501 1499 1504 1514 1514 1511 1510 1510 1509 1509 1509 1508 1506 1506 1506 1505 1505 1506 1507 1507 1507 1507 1509 1509 1509 1511 1513 1516 1518 1520 1522 1524 1525 1527
1525 1524 1524 1523 1522 1522 1521 1520 1519 1518 1516 1515 1514 1513 1512 1511 1510 1508 1507 1506 1505 1505 1503 1503 1503 1502 1502 1502 1502 1501 1501 1500 1498 1498 1497 1496 1497 1496 1497 1498 1498 1499 1500 1501 1503 1503 1503 1502 1500 1497 1494 1497 1499 1493 1492 1496 1501 1509 1513 1510 1509 1509 1508 1509 1509 1508 1507 1507 1507 1506 1506 1507 1508 1509 1508 1508 1509 1509 1510 1512 1514 1517 1519 1520 1522 1524 1526 1527
1526 1525 1524 1524 1523 1522 1521 1520 1519 1518 1517 1516 1514 1513 1512 1511 1510 1509 1507 1506 1505 1504 1503 1503 1502 1502 1502 1502 1502 1501 1499 1499 1498 1497 1497 1496 1496 1497 1497 1498 1498 1499 1500 1501 1502 1502 1502 1500 1498 1496 1494 1496 1496 1490 1488 1496 1501 1505 1511 1510 1508 1508 1508 1508 1508 1509 1508 1508 1509 1507 1507 1508 1508 1509 1509 1508 1509 1509 1511 1513 1515 1517 1519 1521 1523 1524 1526 1528
1526 1526 1525 1524 1524 1523 1522 1520 1519 1518 1517 1516 1514 1513 1512 1511 1510 1509 1508 1506 1505 1505 1504 1503 1502 1502 1502 1502 1503 1501 1499 1499 1498 1497 1497 1497 1497 1497 1497 1498 1499 1499 1501 1502 1502 1502 1501 1498 1496 1495 1495 1493 1491 1488 1487 1496 1505 1505 1506 1509 1508 1508 1508 1508 1508 1508 1508 1509 1511 1510 1508 1509 1509 1510 1510 1509 1509 1510 1512 1514 1516 1518 1520 1521 1523 1525 1527 1528
1527 1526 1526 1525 1524 1523 1522 1521 1520 1519 1517 1516 1515 1513 1512 1511 1510 1509 1507 1506 1505 1504 1504 1503 1503 1503 1503 1503 1503 1501 1499 1499 1499 1498 1498 1497 1497 1497 1498 1499 1500 1500 1501 1501 1501 1501 1500 1498 1496 1496 1495 1492 1490 1488 1488 1496 1504 1504 1506 1508 1508 1508 1507 1508 1509 1508 1509 1511 1514 1513 1511 1510 1510 1511 1513 1510 1509 1511 1512 1514 1516 1518 1520 1521 1523 1525 1526 1528
1527 1527 1526 1525 1524 1524 1522 1521 1520 1519 1518 1516 1515 1513 1512 1511 1510 1509 1507 1506 1505 1504 1504 1503 1503 1503 1503 1503 1503 1500 1499 1500 1500 1499 1499 1498 1498 1498 1499 1500 1501 1501 1501 1501 1501 1500 1500 1499 1498 1498 1496 1493 1490 1488 1490 1496 1500 1503 1508 1509 1508 1508 1509 1510 1510 1509 1509 1511 1513 1512 1511 1511 1511 1513 1512 1510 1510 1511 1512 1514 1516 1518 1520 1522 1524 1525 1526 1528
1528 1527 1526 1526 1525 1524 1523 1522 1520 1519 1518 1516 1515 1513 1512 1511 1510 1509 1507 1506 1505 1504 1504 1503 1504 1503 1503 1503 1502 1501 1500 1501 1501 1500 1500 1499 1499 1499 1500 1501 1501 1501 1501 1500 1500 1500 1500 1499 1500 1499 1496 1494 1491 1490 1493 1495 1498 1503 1507 1511 1512 1510 1511 1513 1512 1511 1512 1513 1512 1512 1517 1517 1515 1515 1512 1509 1511 1511 1512 1515 1517 1518 1520 1522 1524 1526 1527 1528
1528 1528 1527 1526 1525 1524 1523 1522 1520 1519 1518 1516 1514 1513 1512 1511 1510 1509 1508 1507 1505 1505 1504 1504 1504 1504 1503 1502 1501 1501 1501 1501 1501 1501 1500 1500 1500 1500 1500 1500 1500 1501 1501 1500 1500 1499 1500 1500 1500 1498 1496 1495 1491 1492 1494 1493 1498 1506 1509 1512 1517 1518 1517 1515 1513 1513 1515 1516 1511 1513 1525 1525 1519 1516 1511 1510 1511 1511 1513 1515 1517 1519 1520 1523 1524 1526 1527 1529
1529 1528 1527 1526 1525 1524 1523 1522 1521 1519 1518 1516 1515 1514 1512 1511 1510 1509 1508 1507 1506 1505 1505 1505 1504 1504 1504 1502 1501 1501 1501 1501 1501 1500 1500 1500 1500 1500 1500 1499 1500 1500 1500 1500 1500 1500 1499 1499 1500 1498 1497 1495 1491 1490 1490 1492 1499 1507 1511 1512 1516 1525 1525 1515 1513 1515 1517 1517 1511 1514 1527 1526 1520 1515 1511 1512 1512 1512 1513 1514 1517 1519 1520 1523 1524 1526 1528 1529
1529 1528 1527 1527 1525 1525 1523 1522 1521 1519 1518 1516 1515 1514 1513 1512 1511 1510 1509 1508 1507 1506 1506 1506 1505 1505 1504 1501 1501 1500 1499 1500 1500 1499 1500 1500 1500 1499 1499 1499 1499 1499 1499 1500 1500 1500 1500 1499 1499 1497 1495 1492 1489 1490 1491 1493 1500 1505 1512 1513 1512 1522 1527 1518 1513 1514 1516 1516 1511 1516 1525 1524 1519 1514 1511 1512 1512 1513 1514 1513 1516 1518 1520 1523 1524 1526 1528 1529
1529 1528 1528 1527 1526 1525 1523 1522 1521 1519 1518 1516 1515 1514 1513 1512 1511 1510 1510 1509 1508 1507 1507 1507 1506 1506 1504 1500 1499 1500 1499 1499 1499 1499 1500 1499 1499 1498 1498 1499 1499 1499 1499 1499 1499 1499 1499 1498 1497 1495 1493 1491 1488 1490 1493 1499 1504 1504 1510 1514 1511 1517 1525 1522 1516 1512 1513 1515 1513 1516 1523 1523 1518 1513 1512 1512 1512 1513 1513 1513 1515 1518 1520 1522 1524 1525 1527 1528
1529 1528 1528 1527 1526 1525 1524 1522 1521 1519 1518 1516 1516 1514 1514 1512 1511 1511 1510 1510 1509 1507 1507 1506 1506 1507 1503 1499 1499 1499 1498 1499 1499 1499 1499 1499 1499 1498 1498 1499 1498 1498 1498 1498 1499 1498 1498 1497 1496 1495 1492 1490 1488 1489 1498 1510 1514 1509 1510 1515 1513 1513 1520 1524 1520 1514 1512 1515 1516 1516 1520 1522 1517 1513 1513 1512 1512 1513 1514 1514 1514 1516 1519 1521 1523 1525 1526 1528
1529 1528 1528 1527 1526 1525 1524 1522 1521 1519 1518 1516 1515 1514 1514 1512 1511 1511 1510 1510 1509 1508 1508 1506 1506 1508 1504 1499 1498 1498 1498 1499 1499 1498 1499 1499 1498 1498 1498 1498 1497 1498 1497 1497 1497 1496 1497 1495 1493 1494 1491 1489 1488 1490 1500 1511 1513 1511 1512 1515 1514 1511 1514 1520 1519 1515 1513 1516 1518 1519 1520 1519 1516 1514 1513 1513 1512 1512 1512 1514 1514 1516 1518 1521 1523 1524 1526 1528
1529 1528 1527 1527 1526 1525 1524 1523 1521 1519 1518 1516 1515 1514 1513 1512 1511 1510 1509 1509 1508 1507 1505 1503 1503 1503 1501 1498 1497 1498 1498 1498 1498 1498 1498 1498 1498 1498 1498 1497 1497 1497 1496 1495 1494 1493 1494 1493 1494 1498 1496 1491 1485 1484 1493 1500 1504 1511 1513 1513 1515 1513 1513 1516 1514 1511 1512 1518 1521 1520 1520 1520 1518 1517 1514 1513 1513 1513 1512 1512 1514 1516 1517 1520 1522 1524 1526 1527
1529 1528 1527 1526 1526 1525 1524 1523 1522 1520 1518 1516 1514 1512 1511 1510 1509 1508 1508 1507 1505 1503 1501 1500 1499 1496 1496 1496 1497 1498 1498 1498 1498 1497 1498 1498 1498 1497 1497 1497 1495 1495 1495 1492 1491 1489 1490 1495 1498 1496 1492 1486 1479 1477 1484 1493 1502 1511 1515 1513 1512 1514 1517 1518 1515 1512 1512 1520 1524 1519 1518 1521 1520 1517 1515 1515 1514 1513 1513 1512 1513 1515 1516 1518 1520 1523 1525 1527
1528 1528 1527 1526 1526 1525 1524 1523 1522 1520 1518 1516 1515 1513 1511 1510 1509 1508 1508 1505 1503 1502 1501 1499 1499 1497 1496 1497 1497 1497 1497 1497 1496 1497 1497 1497 1497 1496 1495 1494 1494 1495 1492 1488 1486 1484 1489 1497 1494 1486 1481 1475 1475 1478 1484 1495 1503 1507 1513 1515 1513 1515 1518 1519 1519 1516 1514 1520 1523 1518 1519 1522 1520 1518 1517 1516 1516 1515 1514 1513 1512 1514 1516 1517 1519 1522 1525 1526
1528 1527 1526 1526 1525 1524 1524 1522 1522 1520 1518 1517 1515 1513 1512 1512 1512 1511 1509 1505 1501 1501 1501 1499 1499 1498 1498 1498 1497 1497 1496 1493 1494 1496 1496 1496 1496 1494 1492 1491 1493 1492 1487 1485 1487 1487 1492 1494 1486 1478 1473 1470 1475 1481 1485 1494 1502 1506 1512 1514 1513 1514 1517 1520 1519 1517 1517 1521 1523 1522 1527 1526 1520 1520 1519 1517 1517 1516 1516 1516 1514 1514 1516 1516 1519 1521 1524 1526
1528 1527 1526 1526 1524 1524 1523 1522 1521 1520 1518 1517 1514 1514 1514 1513 1512 1511 1511 1507 1501 1500 1499 1498 1497 1495 1496 1497 1496 1497 1494 1490 1491 1494 1495 1496 1494 1492 1492 1489 1489 1489 1485 1485 1488 1491 1492 1485 1475 1470 1470 1473 1479 1481 1484 1492 1499 1504 1508 1511 1512 1513 1516 1522 1520 1517 1518 1520 1522 1526 1532 1531 1526 1524 1521 1519 1519 1517 1518 1519 1517 1515 1515 1516 1517 1520 1523 1525
1527 1526 1526 1525 1524 1524 1522 1522 1521 1519 1518 1516 1515 1515 1515 1514 1512 1511 1510 1505 1500 1496 1496 1497 1495 1494 1495 1495 1496 1496 1493 1489 1489 1491 1494 1495 1492 1490 1489 1486 1487 1488 1484 1481 1483 1488 1485 1472 1466 1467 1469 1475 1482 1483 1483 1489 1497 1501 1503 1506 1509 1508 1510 1515 1517 1516 1517 1519 1520 1525 1535 1537 1533 1531 1524 1519 1520 1519 1519 1520 1518 1516 1515 1515 1516 1519 1522 1524
1526 1526 1525 1524 1524 1523 1522 1522 1519 1518 1517 1515 1515 1516 1515 1514 1512 1511 1510 1508 1502 1495 1495 1497 1495 1495 1495 1495 1496 1494 1491 1491 1490 1491 1493 1494 1492 1490 1487 1484 1487 1488 1483 1479 1482 1486 1482 1470 1467 1471 1472 1476 1483 1486 1483 1484 1492 1499 1499 1498 1500 1502 1506 1510 1514 1516 1523 1527 1520 1520 1539 1540 1528 1527 1523 1519 1521 1521 1521 1520 1517 1515 1515 1515 1515 1517 1521 1523
1526 1525 1524 1524 1524 1522 1523 1520 1519 1519 1517 1516 1517 1516 1516 1514 1512 1512 1511 1510 1505 1496 1494 1496 1495 1494 1494 1494 1494 1492 1493 1491 1489 1492 1493 1493 1492 1491 1489 1485 1483 1486 1483 1480 1481 1481 1477 1469 1469 1474 1476 1478 1485 1487 1482 1480 1488 1494 1491 1489 1493 1497 1504 1510 1513 1518 1526 1529 1520 1517 1535 1539 1526 1523 1519 1517 1520 1521 1522 1520 1515 1514 1514 1515 1515 1516 1519 1522
1525 1524 1523 1523 1522 1522 1522 1520 1519 1518 1516 1517 1517 1516 1516 1513 1512 1513 1512 1516 1508 1493 1491 1493 1493 1493 1493 1493 1492 1492 1497 1493 1489 1491 1491 1492 1492 1490 1492 1486 1482 1483 1479 1482 1489 1482 1474 1475 1475 1479 1481 1483 1488 1486 1478 1477 1486 1489 1482 1483 1490 1495 1504 1509 1511 1517 1517 1519 1523 1520 1524 1533 1530 1521 1514 1514 1518 1519 1520 1518 1513 1514 1514 1514 1515 1515 1517 1520
1524 1523 1523 1522 1521 1522 1521 1520 1519 1517 1517 1518 1516 1517 1516 1513 1513 1511 1517 1527 1510 1488 1488 1490 1491 1493 1491 1492 1492 1490 1493 1491 1490 1492 1490 1491 1492 1488 1489 1485 1482 1481 1475 1484 1495 1481 1471 1477 1478 1480 1486 1487 1486 1481 1473 1472 1480 1482 1477 1480 1487 1492 1502 1508 1512 1518 1517 1524 1535 1522 1516 1530 1530 1515 1510 1514 1517 1518 1516 1514 1513 1512 1513 1513 1514 1514 1516 1519
1523 1522 1522 1521 1521 1521 1520 1520 1519 1517 1518 1517 1516 1517 1514 1514 1514 1510 1521 1529 1503 1484 1488 1489 1490 1493 1490 1491 1490 1486 1486 1488 1490 1490 1488 1490 1490 1489 1489 1484 1481 1482 1477 1482 1489 1479 1472 1475 1473 1475 1483 1484 1479 1473 1470 1471 1476 1476 1474 1479 1483 1486 1496 1506 1513 1520 1525 1535 1539 1521 1513 1527 1526 1512 1512 1517 1517 1515 1512 1509 1510 1511 1512 1513 1513 1513 1515 1517
1522 1521 1520 1520 1520 1520 1519 1519 1518 1517 1517 1516 1516 1515 1513 1515 1514 1517 1529 1519 1492 1485 1487 1486 1488 1490 1488 1490 1489 1485 1483 1484 1486 1487 1488 1489 1488 1488 1488 1485 1482 1483 1481 1480 1481 1477 1471 1472 1472 1474 1478 1477 1473 1470 1467 1468 1470 1471 1477 1483 1486 1488 1493 1501 1510 1518 1533 1540 1532 1518 1514 1521 1524 1514 1509 1512 1510 1507 1508 1507 1507 1508 1511 1513 1513 1513 1514 1516
1521 1520 1519 1518 1519 1519 1518 1518 1518 1517 1517 1516 1515 1513 1514 1513 1512 1525 1527 1501 1485 1488 1484 1484 1487 1484 1485 1488 1487 1484 1481 1481 1482 1485 1489 1487 1487 1487 1486 1487 1486 1485 1485 1482 1478 1474 1470 1473 1474 1472 1474 1473 1473 1473 1468 1465 1468 1474 1482 1487 1492 1497 1498 1506 1515 1521 1536 1539 1524 1515 1515 1521 1528 1518 1505 1504 1501 1499 1503 1504 1505 1506 1507 1510 1512 1512 1512 1514
1520 1518 1517 1517 1517 1517 1517 1517 1516 1516 1516 1515 1515 1513 1514 1515 1516 1520 1509 1489 1489 1491 1483 1483 1484 1481 1483 1484 1483 1481 1480 1481 1480 1482 1485 1484 1484 1484 1484 1486 1485 1489 1492 1482 1476 1474 1470 1470 1469 1469 1470 1471 1476 1480 1475 1472 1473 1480 1486 1491 1502 1509 1511 1521 1527 1529 1538 1537 1522 1517 1521 1526 1524 1512 1503 1500 1497 1498 1499 1500 1504 1505 1504 1506 1508 1509 1511 1513
1518 1516 1515 1515 1514 1514 1515 1516 1515 1516 1515 1515 1516 1512 1513 1523 1521 1504 1492 1490 1491 1486 1481 1483 1482 1481 1484 1484 1483 1481 1481 1484 1480 1479 1481 1480 1482 1479 1476 1476 1476 1484 1490 1481 1476 1477 1473 1468 1466 1470 1470 1468 1475 1482 1483 1481 1479 1483 1488 1493 1504 1512 1521 1530 1529 1531 1541 1535 1519 1514 1523 1530 1522 1510 1507 1502 1497 1498 1498 1498 1502 1503 1503 1504 1506 1508 1510 1511
1516 1514 1513 1512 1512 1513 1513 1515 1515 1515 1516 1515 1515 1512 1516 1525 1514 1490 1486 1486 1481 1479 1481 1482 1482 1483 1485 1484 1481 1479 1483 1485 1477 1478 1481 1481 1484 1478 1473 1475 1474 1476 1481 1481 1480 1481 1485 1482 1471 1470 1471 1468 1472 1476 1477 1475 1474 1477 1475 1482 1495 1499 1510 1524 1522 1527 1533 1526 1519 1518 1523 1531 1528 1519 1514 1508 1503 1500 1499 1499 1500 1502 1505 1505 1506 1508 1509 1510
1514 1512 1512 1510 1511 1511 1512 1514 1514 1515 1517 1515 1514 1514 1519 1518 1500 1485 1486 1482 1478 1482 1480 1479 1483 1487 1487 1483 1478 1475 1481 1484 1477 1478 1482 1481 1481 1477 1473 1475 1475 1475 1478 1484 1484 1480 1487 1486 1468 1465 1468 1468 1473 1471 1467 1474 1477 1471 1465 1479 1492 1486 1490 1505 1509 1510 1515 1521 1527 1525 1523 1524 1521 1517 1513 1510 1508 1502 1500 1502 1501 1503 1505 1505 1506 1507 1508 1510
1514 1511 1510 1509 1509 1509 1510 1513 1513 1515 1516 1515 1515 1515 1511 1502 1487 1482 1485 1481 1482 1484 1482 1483 1485 1488 1487 1482 1480 1478 1477 1480 1479 1480 1482 1478 1476 1476 1475 1473 1473 1476 1479 1485 1487 1482 1487 1484 1468 1466 1469 1466 1471 1470 1466 1475 1481 1474 1474 1482 1481 1472 1479 1496 1505 1503 1505 1523 1537 1530 1523 1520 1517 1517 1512 1510 1511 1505 1503 1504 1503 1504 1504 1503 1504 1505 1507 1509
1513 1511 1510 1509 1508 1509 1510 1511 1512 1515 1515 1514 1516 1512 1502 1490 1480 1478 1481 1481 1483 1483 1487 1491 1486 1486 1487 1481 1481 1482 1478 1479 1480 1481 1482 1479 1478 1477 1475 1473 1473 1475 1476 1482 1486 1481 1487 1489 1473 1469 1473 1466 1464 1468 1466 1466 1471 1478 1483 1480 1472 1473 1479 1489 1507 1514 1513 1528 1540 1532 1526 1524 1525 1525 1517 1513 1516 1511 1507 1504 1502 1503 1503 1503 1503 1503 1506 1508
1511 1510 1509 1508 1508 1509 1510 1510 1512 1514 1514 1513 1514 1508 1499 1490 1482 1477 1479 1482 1483 1484 1490 1492 1485 1483 1483 1480 1479 1477 1478 1482 1480 1479 1480 1481 1482 1478 1474 1474 1475 1474 1473 1479 1484 1478 1482 1492 1480 1468 1473 1469 1460 1469 1475 1467 1464 1470 1472 1470 1479 1495 1498 1496 1508 1518 1520 1533 1538 1529 1524 1523 1524 1523 1518 1520 1520 1514 1513 1509 1503 1503 1503 1503 1503 1503 1505 1506
1511 1510 1507 1505 1507 1508 1509 1510 1512 1513 1512 1512 1511 1504 1495 1488 1481 1479 1481 1483 1484 1486 1488 1487 1483 1481 1478 1477 1478 1473 1474 1481 1481 1479 1483 1486 1486 1479 1474 1475 1476 1475 1473 1477 1483 1478 1479 1494 1492 1473 1471 1474 1468 1472 1480 1476 1467 1463 1465 1470 1480 1493 1500 1501 1503 1503 1511 1532 1539 1532 1530 1525 1517 1513 1514 1518 1516 1512 1516 1515 1509 1506 1505 1505 1504 1503 1505 1504
1511 1509 1504 1503 1506 1507 1508 1510 1511 1511 1510 1509 1505 1498 1490 1481 1476 1476 1482 1485 1483 1485 1486 1483 1481 1482 1478 1476 1479 1475 1473 1477 1479 1481 1483 1484 1484 1480 1474 1474 1476 1476 1473 1474 1479 1479 1479 1492 1497 1482 1475 1484 1484 1478 1479 1480 1474 1471 1476 1482 1483 1485 1490 1495 1496 1488 1493 1523 1541 1541 1538 1525 1510 1507 1509 1512 1512 1512 1514 1513 1510 1507 1506 1507 1506 1504 1504 1503
1511 1508 1503 1503 1506 1506 1507 1509 1508 1507 1507 1504 1499 1494 1487 1479 1473 1474 1481 1484 1483 1481 1482 1482 1481 1482 1481 1478 1477 1476 1475 1476 1479 1481 1479 1477 1483 1483 1476 1472 1475 1476 1477 1477 1476 1477 1480 1487 1494 1491 1489 1494 1490 1478 1475 1477 1476 1476 1481 1486 1485 1484 1488 1498 1502 1488 1484 1510 1531 1536 1538 1525 1506 1503 1508 1512 1514 1513 1511 1511 1511 1509 1507 1508 1507 1505 1505 1506
1510 1506 1502 1503 1505 1505 1506 1506 1504 1503 1502 1500 1495 1489 1483 1480 1478 1478 1479 1483 1484 1482 1481 1482 1482 1483 1484 1480 1476 1476 1478 1479 1480 1480 1478 1476 1479 1482 1478 1476 1479 1480 1482 1483 1479 1478 1481 1486 1495 1498 1494 1493 1486 1476 1474 1476 1475 1478 1482 1484 1485 1485 1487 1497 1505 1495 1487 1498 1509 1519 1532 1524 1503 1501 1511 1517 1516 1512 1512 1513 1513 1513 1512 1510 1508 1507 1509 1511
1510 1506 1503 1503 1504 1505 1506 1504 1501 1500 1498 1494 1490 1483 1478 1479 1481 1481 1480 1481 1484 1483 1483 1483 1482 1483 1483 1478 1478 1480 1481 1481 1478 1475 1475 1475 1475 1477 1478 1479 1481 1481 1483 1484 1482 1481 1484 1490 1500 1502 1495 1488 1481 1474 1473 1473 1475 1483 1486 1485 1488 1491 1489 1489 1492 1491 1492 1498 1504 1519 1532 1522 1504 1503 1513 1518 1516 1512 1514 1516 1516 1515 1514 1512 1510 1509 1509 1512
1511 1506 1503 1502 1503 1503 1503 1502 1500 1497 1494 1490 1487 1482 1477 1474 1478 1482 1481 1480 1481 1481 1483 1483 1481 1481 1479 1477 1480 1481 1479 1482 1481 1473 1473 1477 1477 1476 1476 1479 1481 1482 1484 1486 1485 1485 1491 1496 1500 1507 1512 1508 1499 1494 1490 1485 1482 1486 1491 1491 1491 1491 1492 1492 1489 1490 1498 1501 1503 1519 1529 1518 1508 1509 1513 1516 1517 1515 1515 1518 1520 1518 1516 1515 1513 1511 1510 1510
1512 1506 1501 1499 1501 1501 1499 1497 1495 1492 1488 1486 1485 1482 1478 1475 1476 1480 1480 1478 1478 1479 1481 1481 1478 1477 1476 1477 1482 1482 1478 1483 1485 1478 1476 1480 1478 1474 1474 1479 1481 1481 1484 1487 1485 1485 1493 1497 1498 1510 1526 1528 1525 1520 1512 1504 1495 1489 1490 1494 1493 1489 1494 1501 1500 1503 1509 1503 1498 1509 1516 1513 1510 1511 1512 1514 1518 1518 1516 1518 1521 1520 1520 1518 1514 1513 1513 1512
1513 1507 1499 1494 1494 1496 1495 1494 1492 1490 1487 1486 1485 1481 1480 1478 1475 1477 1479 1479 1478 1477 1478 1478 1475 1476 1478 1480 1485 1486 1482 1482 1483 1481 1481 1481 1477 1472 1474 1479 1481 1481 1484 1487 1486 1487 1493 1496 1497 1506 1516 1517 1517 1512 1501 1498 1498 1495 1492 1494 1493 1492 1493 1496 1502 1508 1507 1500 1500 1503 1503 1508 1512 1510 1510 1513 1515 1518 1519 1521 1522 1521 1520 1519 1516 1515 1514 1513
1514 1508 1500 1495 1494 1493 1492 1491 1490 1488 1486 1487 1486 1481 1477 1475 1473 1473 1476 1478 1478 1477 1477 1476 1475 1480 1484 1484 1487 1488 1485 1483 1482 1482 1481 1480 1476 1474 1475 1477 1478 1480 1483 1485 1486 1490 1496 1499 1497 1499 1502 1500 1501 1498 1490 1490 1494 1494 1494 1493 1493 1494 1495 1495 1501 1505 1502 1502 1509 1504 1497 1506 1512 1506 1507 1511 1513 1518 1522 1523 1522 1519 1519 1519 1517 1517 1515 1514
1514 1508 1501 1500 1500 1495 1492 1490 1486 1485 1484 1483 1483 1480 1477 1475 1476 1477 1475 1475 1477 1477 1479 1480 1479 1480 1481 1481 1484 1485 1482 1484 1486 1483 1480 1479 1478 1478 1477 1475 1474 1478 1482 1484 1484 1486 1493 1498 1496 1496 1498 1495 1494 1494 1490 1489 1492 1492 1492 1493 1494 1496 1499 1499 1500 1501 1503 1507 1509 1503 1500 1506 1508 1506 1507 1509 1510 1517 1523 1524 1521 1520 1520 1519 1518 1518 1517 1516
1514 1511 1506 1505 1504 1498 1495 1492 1488 1487 1486 1484 1483 1482 1480 1478 1477 1474 1471 1473 1477 1477 1478 1483 1481 1479 1479 1478 1481 1484 1483 1486 1488 1484 1480 1481 1482 1481 1480 1479 1476 1477 1479 1480 1479 1479 1486 1494 1495 1496 1500 1497 1494 1494 1492 1491 1495 1496 1494 1494 1494 1495 1498 1501 1501 1498 1501 1506 1505 1505 1510 1511 1507 1507 1508 1508 1509 1514 1520 1523 1522 1522 1522 1520 1519 1519 1518 1517
1518 1517 1513 1510 1507 1501 1497 1494 1492 1490 1488 1488 1488 1485 1483 1481 1478 1472 1467 1470 1476 1475 1476 1481 1480 1476 1476 1475 1478 1482 1482 1483 1483 1480 1480 1484 1484 1481 1481 1482 1480 1479 1478 1477 1478 1480 1486 1495 1495 1494 1501 1501 1495 1495 1495 1494 1498 1501 1499 1495 1494 1496 1498 1502 1503 1500 1501 1508 1508 1509 1516 1516 1509 1506 1508 1509 1510 1513 1517 1521 1523 1524 1524 1522 1521 1520 1519 1519
1521 1520 1518 1515 1510 1504 1501 1496 1492 1491 1489 1488 1490 1488 1485 1484 1480 1476 1469 1466 1469 1471 1472 1476 1478 1475 1473 1473 1473 1475 1476 1477 1476 1475 1477 1481 1480 1477 1479 1478 1476 1479 1480 1477 1478 1480 1485 1493 1492 1492 1503 1504 1495 1496 1498 1494 1496 1502 1502 1498 1496 1499 1503 1505 1506 1506 1507 1512 1514 1514 1516 1514 1510 1507 1508 1509 1511 1513 1516 1518 1521 1524 1525 1524 1523 1521 1520 1520
1521 1519 1518 1517 1511 1505 1503 1498 1493 1492 1490 1487 1486 1485 1485 1483 1478 1476 1474 1469 1466 1467 1467 1469 1473 1475 1476 1475 1472 1471 1475 1476 1474 1473 1474 1474 1473 1473 1476 1474 1472 1476 1480 1479 1478 1478 1481 1488 1490 1491 1502 1502 1496 1497 1498 1497 1505 1510 1503 1498 1497 1500 1506 1508 1508 1510 1511 1512 1515 1518 1513 1507 1506 1507 1508 1510 1513 1514 1516 1517 1520 1523 1523 1524 1523 1521 1521 1522